Location: Fort Wayne
(41.1310°N, 85.1290°W)
Time: 00:21:07
(UTC-05:00)

Cosmos 2219 Rocket - Visible Passes

Search period start: 13 December 2017 00:00
Search period end: 23 December 2017 00:00
Orbit: 828 x 847 km, 71.0° (Epoch: 12 December)

Date Brightness Start Highest point End Pass type
(mag) Time Alt. Az. Time Alt. Az. Time Alt. Az.
13 Dec 4.5 07:03:52 10° N 07:07:25 17° NE 07:10:56 10° E visible
14 Dec 4.6 06:47:40 10° NNE 06:50:59 16° NE 06:54:17 10° E visible
15 Dec 4.6 06:31:29 10° NNE 06:34:33 15° NE 06:37:36 10° E visible
16 Dec 4.6 06:15:20 10° NNE 06:18:06 14° NE 06:20:53 10° ENE visible
17 Dec 4.7 05:59:13 10° NNE 06:01:40 13° NE 06:04:07 10° ENE visible
18 Dec 4.8 05:43:09 10° NNE 05:45:13 12° NE 05:47:16 10° ENE visible
18 Dec 2.6 07:24:37 10° NNW 07:30:18 68° ENE 07:35:56 10° SSE visible
19 Dec 4.8 05:27:11 10° NNE 05:28:46 11° NE 05:30:21 10° ENE visible
19 Dec 2.7 07:08:16 10° NNW 07:13:55 63° ENE 07:19:31 10° SE visible
20 Dec 4.9 05:11:28 10° NNE 05:12:19 10° NE 05:13:09 10° NE visible
20 Dec 2.8 06:51:56 10° NNW 06:57:32 58° ENE 07:03:07 10° SE visible
21 Dec 2.9 06:35:36 10° NNW 06:41:10 54° ENE 06:46:42 10° SE visible
22 Dec 3.0 06:19:16 10° NNW 06:24:47 50° ENE 06:30:16 10° SE visible
